Tracking 26544 objects as of 9-Dec-2022
HD Live streaming from Space Station
objects crossing your sky now

EAGLESAT-1

Track EAGLESAT-1 now!
10-day predictions
EAGLESAT-1 is classified as:


NORAD ID: 43018
Int'l Code: 2017-073F
Perigee: 454.7 km
Apogee: 780.0 km
Inclination: 97.7 °
Period: 96.9 minutes
Semi major axis: 6988 km
RCS: Unknown
Launch date: November 18, 2017
Source: United States (US)
Launch site: AIR FORCE WESTERN TEST RANGE (AFWTR)

Uplink (MHz):
Downlink (MHz): 437.645
Beacon (MHz):
Mode: 1200bps AFSK
Call sign:
Status: Inactive

aabbcc
Your satellite tracking list
Your tracking list is empty




NASA's NSSDC Master Catalog

Two Line Element Set (TLE):
1 43018U 17073F   22342.66901313  .00012215  00000-0  85330-3 0  9999
2 43018  97.6580 232.1907 0232793 328.7976  29.9590 14.86074895272945
Source of the keplerian elements: AFSPC